Location: Newark
(35.4500°N, 118.9467°W)
Time: 03:23:19
(UTC+00:00)

Envisat - Visible Passes

Search period start: 21 January 2020 00:00
Search period end: 31 January 2020 00:00
Orbit: 764 x 766 km, 98.1° (Epoch: 20 January)

Date Brightness Start Highest point End Pass type
(mag) Time Alt. Az. Time Alt. Az. Time Alt. Az.
21 Jan 3.0 01:33:58 10° SSE 01:38:58 60° ENE 01:43:58 10° N visible
21 Jan 6.2 03:16:02 10° WSW 03:18:19 13° W 03:20:37 10° WNW visible
21 Jan 5.4 13:46:31 10° NE 13:50:46 26° E 13:54:59 10° SSE visible
22 Jan 5.0 02:36:47 10° SSW 02:41:16 31° W 02:45:45 10° NW visible
22 Jan 6.4 13:12:36 10° ENE 13:13:40 11° E 13:14:44 10° ESE visible
23 Jan 3.3 01:59:20 10° S 02:04:24 75° W 02:09:29 10° NNW visible
23 Jan 4.2 14:11:26 10° NNE 14:16:21 48° E 14:21:14 10° S visible
24 Jan 5.9 03:03:40 10° SW 03:06:55 17° W 03:10:11 10° NW visible
24 Jan 5.8 13:35:39 10° NE 13:39:24 20° E 13:43:07 10° SE visible
25 Jan 4.5 02:25:11 10° SSW 02:29:55 40° W 02:34:42 10° NNW visible
26 Jan 3.0 01:48:02 10° SSE 01:53:06 85° ENE 01:58:12 10° N visible
26 Jan 4.7 14:00:19 10° NNE 14:05:01 37° E 14:09:42 10° SSE visible
27 Jan 5.6 02:51:40 10° SW 02:55:33 22° W 02:59:27 10° NW visible
27 Jan 6.1 13:24:58 10° NE 13:28:00 16° E 13:31:02 10° SE visible
28 Jan 3.9 02:13:40 10° S 02:18:36 52° W 02:23:33 10° NNW visible
28 Jan 3.4 14:25:29 10° NNE 14:30:33 70° E 14:35:37 10° S visible
29 Jan 6.3 03:19:33 10° WSW 03:21:15 12° W 03:22:58 10° WNW visible
29 Jan 5.2 13:49:17 10° NE 13:53:41 29° E 13:58:03 10° SSE visible
30 Jan 5.2 02:39:51 10° SSW 02:44:11 28° W 02:48:32 10° NW visible
30 Jan 6.4 13:14:43 10° ENE 13:16:36 12° E 13:18:29 10° ESE visible
